2016,1,1,0,15,0,1.0104,-3.0025,-14.912
2016,1,1,0,45,0,1.0312,-2.4385,-14.198
2016,1,1,1,15,0,1.0521,-2.9871,-14.156
2016,1,1,1,45,0,1.0729,-2.912,-13.97
2016,1,1,2,15,0,1.0937,-2.4676,-13.641
2016,1,1,2,45,0,1.1146,-2.6676,-13.171
2016,1,1,3,15,0,1.1354,-3.6096,-13.835
2016,1,1,3,45,0,1.1562,-2.8047,-13.178
2016,1,1,4,15,0,1.1771,-3.4173,-13.975
2016,1,1,4,45,0,1.1979,-2.9139,-13.75
2016,1,1,5,15,0,1.2187,-2.7359,-12.729
2016,1,1,5,45,0,1.2396,-3.5983,-14.063
2016,1,1,6,15,0,1.2604,-2.6891,-13.29
2016,1,1,6,45,0,1.2812,-3.3796,-13.321
2016,1,1,7,15,0,1.3021,3.5821,-12.35
2016,1,1,7,45,0,1.3229,55.224,-11.815
2016,1,1,8,15,0,1.3437,137.73,-11.091
2016,1,1,8,45,0,1.3646,225.12,-10.278
2016,1,1,9,15,0,1.3854,311.91,-9.2161
2016,1,1,9,45,0,1.4062,390.81,-8.8124
2016,1,1,10,15,0,1.4271,455.25,-8.4583
2016,1,1,10,45,0,1.4479,504.3,-8.2719
2016,1,1,11,15,0,1.4687,540.44,-7.3125
2016,1,1,11,45,0,1.4896,560.18,-6.6898
2016,1,1,12,15,0,1.5104,561,-6.2282
2016,1,1,12,45,0,1.5312,545.37,-6.073
2016,1,1,13,15,0,1.5521,513.5,-5.5756
2016,1,1,13,45,0,1.5729,463.74,-5.2374
2016,1,1,14,15,0,1.5937,400.43,-5.0097
2016,1,1,14,45,0,1.6146,324.13,-5.2512
2016,1,1,15,15,0,1.6354,237.52,-5.5543
2016,1,1,15,45,0,1.6562,146.53,-5.9732
2016,1,1,16,15,0,1.6771,30.891,-6.9895
2016,1,1,16,45,0,1.6979,0.32707,-7.604
2016,1,1,17,15,0,1.7187,-4.3081,-8.9604
2016,1,1,17,45,0,1.7396,-3.8543,-9.097
2016,1,1,18,15,0,1.7604,-3.8768,-9.3014
2016,1,1,18,45,0,1.7812,-3.1894,-9.2328
2016,1,1,19,15,0,1.8021,-3.3774,-10.267
2016,1,1,19,45,0,1.8229,-3.1547,-9.6309
2016,1,1,20,15,0,1.8437,-2.9853,-9.7618
2016,1,1,20,45,0,1.8646,-3.5821,-9.8039
2016,1,1,21,15,0,1.8854,-2.8508,-9.1458
2016,1,1,21,45,0,1.9062,-3.0707,-8.6774
2016,1,1,22,15,0,1.9271,-2.1716,-8.1048
2016,1,1,22,45,0,1.9479,-2.3097,-6.4387
2016,1,1,23,15,0,1.9687,-2.7026,-7.0675
2016,1,1,23,45,0,1.9896,-3.1193,-8.2974
2016,1,2,0,15,0,2.0104,-2.2197,-6.0074
2016,1,2,0,45,0,2.0312,-2.3357,-6.316
2016,1,2,1,15,0,2.0521,-2.7705,-5.5503
2016,1,2,1,45,0,2.0729,-3.0714,-7.445
2016,1,2,2,15,0,2.0937,-3.0536,-6.8994
2016,1,2,2,45,0,2.1146,-2.8752,-6.5788
2016,1,2,3,15,0,2.1354,-3.624,-7.2033
2016,1,2,3,45,0,2.1562,-3.3474,-9.6371
2016,1,2,4,15,0,2.1771,-2.4859,-6.9701
2016,1,2,4,45,0,2.1979,-3.4982,-6.8265
2016,1,2,5,15,0,2.2187,-2.8426,-6.5304
2016,1,2,5,45,0,2.2396,-2.912,-6.9955
2016,1,2,6,15,0,2.2604,-3.0369,-6.7987
2016,1,2,6,45,0,2.2812,-4.6388,-7.7456
2016,1,2,7,15,0,2.3021,2.5392,-8.8556
2016,1,2,7,45,0,2.3229,55.097,-7.332
2016,1,2,8,15,0,2.3437,137.85,-6.9333
2016,1,2,8,45,0,2.3646,224.44,-6.0775
2016,1,2,9,15,0,2.3854,311.61,-4.4646
2016,1,2,9,45,0,2.4062,392,-3.436
2016,1,2,10,15,0,2.4271,450.98,-3.5861
2016,1,2,10,45,0,2.4479,498.99,-2.8203
2016,1,2,11,15,0,2.4687,534.37,-2.4148
2016,1,2,11,45,0,2.4896,552.31,-1.7872
2016,1,2,12,15,0,2.5104,554.2,-1.3715
2016,1,2,12,45,0,2.5312,514.82,-1.3489
2016,1,2,13,15,0,2.5521,511.23,-1.1332
2016,1,2,13,45,0,2.5729,457.72,-1.1606
2016,1,2,14,15,0,2.5937,399.04,-0.51922
2016,1,2,14,45,0,2.6146,283.04,-1.1155
2016,1,2,15,15,0,2.6354,164.55,-1.7341
2016,1,2,15,45,0,2.6562,70.569,-2.8243
2016,1,2,16,15,0,2.6771,34.189,-2.4618
2016,1,2,16,45,0,2.6979,4.2996,-2.8152
2016,1,2,17,15,0,2.7187,-3.1044,-2.9791
2016,1,2,17,45,0,2.7396,-3.2536,-3.1876
2016,1,2,18,15,0,2.7604,-2.4316,-2.9524
2016,1,2,18,45,0,2.7812,-2.4943,-3.1436
2016,1,2,19,15,0,2.8021,-2.5369,-3.4984
2016,1,2,19,45,0,2.8229,-2.6309,-3.9391
2016,1,2,20,15,0,2.8437,-1.363,-4.0218
2016,1,2,20,45,0,2.8646,-0.73114,-3.2631
2016,1,2,21,15,0,2.8854,-1.4003,-3.1034
2016,1,2,21,45,0,2.9062,-1.286,-2.4258
2016,1,2,22,15,0,2.9271,-1.8139,-2.5624
2016,1,2,22,45,0,2.9479,-1.6722,-2.6992
2016,1,2,23,15,0,2.9687,-1.3982,-2.7747
2016,1,2,23,45,0,2.9896,-1.5312,-2.637
2016,1,3,0,15,0,3.0104,-1.0846,-2.217
2016,1,3,0,45,0,3.0312,-1.7313,-2.3793
2016,1,3,1,15,0,3.0521,-1.4815,-2.7071
2016,1,3,1,45,0,3.0729,-1.7949,-3.2923
2016,1,3,2,15,0,3.0937,-1.2956,-3.4099
2016,1,3,2,45,0,3.1146,-1.3308,-3.1875
2016,1,3,3,15,0,3.1354,-1.7402,-2.9685
2016,1,3,3,45,0,3.1562,-2.5515,-2.264
2016,1,3,4,15,0,3.1771,-3.5078,-2.5084
2016,1,3,4,45,0,3.1979,-3.1994,-3.2292
2016,1,3,5,15,0,3.2187,-3.0183,-3.1893
2016,1,3,5,45,0,3.2396,-2.9682,-3.3888
2016,1,3,6,15,0,3.2604,-2.9223,-3.5204
2016,1,3,6,45,0,3.2812,-2.6741,-2.8963
2016,1,3,7,15,0,3.3021,2.3501,-3.4668
2016,1,3,7,45,0,3.3229,51.761,-3.4165
2016,1,3,8,15,0,3.3437,133.7,-2.6901
2016,1,3,8,45,0,3.3646,219.28,-1.5492
2016,1,3,9,15,0,3.3854,296.03,-0.37558
2016,1,3,9,45,0,3.4062,365.26,0.29532
2016,1,3,10,15,0,3.4271,432.29,0.15037
2016,1,3,10,45,0,3.4479,481.42,0.39708
2016,1,3,11,15,0,3.4687,514.03,0.58878
2016,1,3,11,45,0,3.4896,526.95,0.94738
2016,1,3,12,15,0,3.5104,522.4,1.0207
2016,1,3,12,45,0,3.5312,532.51,1.3672
2016,1,3,13,15,0,3.5521,490.4,1.4097
2016,1,3,13,45,0,3.5729,440.86,1.001
2016,1,3,14,15,0,3.5937,387.47,0.26084
2016,1,3,14,45,0,3.6146,291.33,-0.098848
2016,1,3,15,15,0,3.6354,176.1,-0.74037
2016,1,3,15,45,0,3.6562,96.522,-1.0887
2016,1,3,16,15,0,3.6771,30.493,-1.4021
2016,1,3,16,45,0,3.6979,2.6497,-2.0073
2016,1,3,17,15,0,3.7187,-2.8724,-2.1718
2016,1,3,17,45,0,3.7396,-3.4693,-2.1912
2016,1,3,18,15,0,3.7604,-3.2081,-2.2995
2016,1,3,18,45,0,3.7812,-3.1224,-2.3523
2016,1,3,19,15,0,3.8021,-2.9731,-2.7023
2016,1,3,19,45,0,3.8229,-2.5227,-2.8369
2016,1,3,20,15,0,3.8437,-2.2483,-2.7085
2016,1,3,20,45,0,3.8646,-2.707,-2.6297
2016,1,3,21,15,0,3.8854,-2.8272,-3.2372
2016,1,3,21,45,0,3.9062,-1.6937,-2.551
2016,1,3,22,15,0,3.9271,-2.005,-2.2889
2016,1,3,22,45,0,3.9479,-2.2606,-2.4058
2016,1,3,23,15,0,3.9687,-2.1972,-3.7292
2016,1,3,23,45,0,3.9896,-1.7616,-3.5536
2016,1,4,0,15,0,4.0104,-1.6712,-2.952
2016,1,4,0,45,0,4.0312,-1.7575,-2.2467
2016,1,4,1,15,0,4.0521,-1.5596,-1.8959
2016,1,4,1,45,0,4.0729,-1.341,-1.6674
2016,1,4,2,15,0,4.0937,-1.8925,-2.5695
2016,1,4,2,45,0,4.1146,-2.3416,-2.5726
2016,1,4,3,15,0,4.1354,-3.033,-3.244
2016,1,4,3,45,0,4.1562,-2.1405,-3.3406
2016,1,4,4,15,0,4.1771,-2.5545,-3.2365
2016,1,4,4,45,0,4.1979,-2.9562,-4.3657
2016,1,4,5,15,0,4.2187,-1.0576,-3.0499
2016,1,4,5,45,0,4.2396,-1.9444,-3.529
2016,1,4,6,15,0,4.2604,-2.0417,-2.711
2016,1,4,6,45,0,4.2812,-2.3875,-2.6751
2016,1,4,7,15,0,4.3021,-0.43935,-3.1776
2016,1,4,7,45,0,4.3229,24.278,-2.3396
2016,1,4,8,15,0,4.3437,94.202,-1.6737
2016,1,4,8,45,0,4.3646,235.69,-1.4314
2016,1,4,9,15,0,4.3854,266.5,-0.34981
2016,1,4,9,45,0,4.4062,347.64,0.14351
2016,1,4,10,15,0,4.4271,434.49,1.0538
2016,1,4,10,45,0,4.4479,471.78,1.3989
2016,1,4,11,15,0,4.4687,517.62,1.7256
2016,1,4,11,45,0,4.4896,530.2,1.9048
2016,1,4,12,15,0,4.5104,528.27,1.8389
2016,1,4,12,45,0,4.5312,516.77,2.0641
2016,1,4,13,15,0,4.5521,499.55,2.4652
2016,1,4,13,45,0,4.5729,446.05,2.4107
2016,1,4,14,15,0,4.5937,383.12,2.1034
2016,1,4,14,45,0,4.6146,262.23,1.8911
2016,1,4,15,15,0,4.6354,202.74,1.6348
2016,1,4,15,45,0,4.6562,118.69,0.31429
2016,1,4,16,15,0,4.6771,32.868,-0.31227
2016,1,4,16,45,0,4.6979,3.0499,-0.9421
2016,1,4,17,15,0,4.7187,-3.1691,-1.2761
2016,1,4,17,45,0,4.7396,-3.1544,-2.0065
2016,1,4,18,15,0,4.7604,-2.9246,-2.1667
2016,1,4,18,45,0,4.7812,-2.8767,-2.3703
2016,1,4,19,15,0,4.8021,-2.5871,-2.0299
2016,1,4,19,45,0,4.8229,-2.461,-1.803
2016,1,4,20,15,0,4.8437,-2.3246,-2.1242
2016,1,4,20,45,0,4.8646,-2.4843,-2.0427
2016,1,4,21,15,0,4.8854,-2.5503,-1.9159
2016,1,4,21,45,0,4.9062,-2.5142,-1.9261
2016,1,4,22,15,0,4.9271,-2.5979,-2.0727
2016,1,4,22,45,0,4.9479,-2.5088,-2.3808
2016,1,4,23,15,0,4.9687,-1.8983,-2.3746
2016,1,4,23,45,0,4.9896,-2.4042,-2.6126
2016,1,5,0,15,0,5.0104,-2.7578,-2.7978
2016,1,5,0,45,0,5.0312,-2.6001,-2.7086
2016,1,5,1,15,0,5.0521,-2.4981,-2.3338
2016,1,5,1,45,0,5.0729,-2.814,-2.3091
2016,1,5,2,15,0,5.0937,-2.1878,-1.6914
2016,1,5,2,45,0,5.1146,-2.4111,-1.744
2016,1,5,3,15,0,5.1354,-2.2652,-2.055
2016,1,5,3,45,0,5.1562,-1.4532,-2.0275
2016,1,5,4,15,0,5.1771,-1.8203,-2.5142
2016,1,5,4,45,0,5.1979,-1.4355,-2.5712
2016,1,5,5,15,0,5.2187,-1.868,-2.2996
2016,1,5,5,45,0,5.2396,-1.7683,-2.7774
2016,1,5,6,15,0,5.2604,-2.315,-2.9666
2016,1,5,6,45,0,5.2812,-2.6685,-2.9073
2016,1,5,7,15,0,5.3021,1.3918,-2.7577
2016,1,5,7,45,0,5.3229,21.071,-2.7829
2016,1,5,8,15,0,5.3437,67.401,-2.5385
2016,1,5,8,45,0,5.3646,132.7,-2.2384
2016,1,5,9,15,0,5.3854,284.47,-1.1569
2016,1,5,9,45,0,5.4062,260.32,-0.75917
2016,1,5,10,15,0,5.4271,458.1,-0.13962
2016,1,5,10,45,0,5.4479,518.2,0.43378
2016,1,5,11,15,0,5.4687,585.7,0.77872
2016,1,5,11,45,0,5.4896,595.94,0.43278
2016,1,5,12,15,0,5.5104,633.46,0.61465
2016,1,5,12,45,0,5.5312,657.21,0.44978
2016,1,5,13,15,0,5.5521,355.87,-0.37435
2016,1,5,13,45,0,5.5729,422.23,-0.067558
2016,1,5,14,15,0,5.5937,261.69,-0.89721
2016,1,5,14,45,0,5.6146,257.6,-1.1809
2016,1,5,15,15,0,5.6354,230.15,-1.5585
2016,1,5,15,45,0,5.6562,77.652,-2.4896
2016,1,5,16,15,0,5.6771,52.096,-2.9947
2016,1,5,16,45,0,5.6979,4.0619,-3.4471
2016,1,5,17,15,0,5.7187,-2.5982,-3.9135
2016,1,5,17,45,0,5.7396,-2.9218,-4.3587
2016,1,5,18,15,0,5.7604,-2.7689,-4.7145
2016,1,5,18,45,0,5.7812,-2.6892,-4.8958
2016,1,5,19,15,0,5.8021,-2.6938,-5.078
2016,1,5,19,45,0,5.8229,-2.7055,-5.1068
2016,1,5,20,15,0,5.8437,-2.5951,-5.0398
2016,1,5,20,45,0,5.8646,-2.5087,-5.261
2016,1,5,21,15,0,5.8854,-2.4484,-5.2078
2016,1,5,21,45,0,5.9062,-2.5891,-5.286
2016,1,5,22,15,0,5.9271,-2.4781,-5.3691
2016,1,5,22,45,0,5.9479,-2.5763,-5.1148
2016,1,5,23,15,0,5.9687,-2.6366,-4.846
2016,1,5,23,45,0,5.9896,-2.6725,-4.7072
2016,1,6,0,15,0,6.0104,-2.739,-4.6097
2016,1,6,0,45,0,6.0312,-2.7688,-4.5648
2016,1,6,1,15,0,6.0521,-2.7994,-4.8253
2016,1,6,1,45,0,6.0729,-2.6366,-4.9335
2016,1,6,2,15,0,6.0937,-2.7151,-4.8831
2016,1,6,2,45,0,6.1146,-2.2122,-5.2306
2016,1,6,3,15,0,6.1354,-2.6711,-5.3776
2016,1,6,3,45,0,6.1562,-2.8261,-5.4997
2016,1,6,4,15,0,6.1771,-2.862,-5.6282
2016,1,6,4,45,0,6.1979,-2.6395,-5.7415
2016,1,6,5,15,0,6.2187,-2.5984,-6.0251
2016,1,6,5,45,0,6.2396,-2.5513,-6.0861
2016,1,6,6,15,0,6.2604,-2.868,-6.2311
2016,1,6,6,45,0,6.2812,-2.2134,-6.1557
2016,1,6,7,15,0,6.3021,4.6575,-6.092
2016,1,6,7,45,0,6.3229,57.832,-6.0733
2016,1,6,8,15,0,6.3437,181.43,-4.8983
2016,1,6,8,45,0,6.3646,281.06,-3.915
2016,1,6,9,15,0,6.3854,268.71,-3.5459
2016,1,6,9,45,0,6.4062,239.68,-3.7605
2016,1,6,10,15,0,6.4271,372.68,-3.522
2016,1,6,10,45,0,6.4479,371.95,-3.0284
2016,1,6,11,15,0,6.4687,222.66,-2.989
2016,1,6,11,45,0,6.4896,424.21,-2.4412
2016,1,6,12,15,0,6.5104,282.73,-1.8419
2016,1,6,12,45,0,6.5312,511.14,-1.3738
2016,1,6,13,15,0,6.5521,532.97,-1.0389
2016,1,6,13,45,0,6.5729,420.34,-1.0328
2016,1,6,14,15,0,6.5937,313.25,-1.2026
2016,1,6,14,45,0,6.6146,178.57,-2.1903
2016,1,6,15,15,0,6.6354,212.23,-2.8543
2016,1,6,15,45,0,6.6562,86.934,-3.4679
2016,1,6,16,15,0,6.6771,27.915,-3.6486
2016,1,6,16,45,0,6.6979,5.7758,-3.8296
2016,1,6,17,15,0,6.7187,-2.5726,-3.8493
2016,1,6,17,45,0,6.7396,-2.7289,-3.9615
2016,1,6,18,15,0,6.7604,-2.8205,-4.7686
2016,1,6,18,45,0,6.7812,-4.0526,-5.8061
2016,1,6,19,15,0,6.8021,-2.7122,-5.8946
2016,1,6,19,45,0,6.8229,-1.1351,-5.6203
2016,1,6,20,15,0,6.8437,-2.0643,-6.294
2016,1,6,20,45,0,6.8646,-3.0709,-6.183
2016,1,6,21,15,0,6.8854,-2.181,-6.0401
2016,1,6,21,45,0,6.9062,-2.0164,-6.4388
2016,1,6,22,15,0,6.9271,-1.0986,-6.3547
2016,1,6,22,45,0,6.9479,-0.20169,-5.9808
2016,1,6,23,15,0,6.9687,0.0083722,-5.7815
2016,1,6,23,45,0,6.9896,-0.54343,-6.0613
2016,1,7,0,15,0,7.0104,-0.70433,-6.0517
2016,1,7,0,45,0,7.0312,-0.94408,-6.0878
2016,1,7,1,15,0,7.0521,-0.70083,-5.9934
2016,1,7,1,45,0,7.0729,-0.6818,-6.2995
2016,1,7,2,15,0,7.0937,-1.2835,-6.5287
2016,1,7,2,45,0,7.1146,-1.3342,-6.9268
2016,1,7,3,15,0,7.1354,-0.82855,-6.9626
2016,1,7,3,45,0,7.1562,-0.23092,-6.7365
2016,1,7,4,15,0,7.1771,-0.27994,-6.7622
2016,1,7,4,45,0,7.1979,-0.89796,-6.7584
2016,1,7,5,15,0,7.2187,-0.91942,-6.802
2016,1,7,5,45,0,7.2396,-1.0599,-7.0179
2016,1,7,6,15,0,7.2604,-0.85123,-6.9225
2016,1,7,6,45,0,7.2812,-0.39456,-7.1157
2016,1,7,7,15,0,7.3021,0.87272,-7.1836
2016,1,7,7,45,0,7.3229,14.378,-7.3673
2016,1,7,8,15,0,7.3437,43.478,-7.2407
2016,1,7,8,45,0,7.3646,90.936,-6.9857
2016,1,7,9,15,0,7.3854,200.37,-6.6543
2016,1,7,9,45,0,7.4062,323.88,-5.898
2016,1,7,10,15,0,7.4271,291.43,-5.6041
2016,1,7,10,45,0,7.4479,257.73,-5.4762
2016,1,7,11,15,0,7.4687,196.11,-5.3022
2016,1,7,11,45,0,7.4896,375.59,-4.6925
2016,1,7,12,15,0,7.5104,363.32,-4.3148
2016,1,7,12,45,0,7.5312,320.59,-4.2154
2016,1,7,13,15,0,7.5521,334.99,-4.1582
2016,1,7,13,45,0,7.5729,295.53,-4.3862
2016,1,7,14,15,0,7.5937,247.96,-4.6262
2016,1,7,14,45,0,7.6146,197.25,-4.6526
2016,1,7,15,15,0,7.6354,143.6,-4.8209
2016,1,7,15,45,0,7.6562,88.26,-5.297
2016,1,7,16,15,0,7.6771,48.745,-5.8334
2016,1,7,16,45,0,7.6979,8.7301,-6.2159
2016,1,7,17,15,0,7.7187,-1.1429,-6.5486
2016,1,7,17,45,0,7.7396,-1.8118,-6.8375
2016,1,7,18,15,0,7.7604,-1.281,-6.8175
2016,1,7,18,45,0,7.7812,-1.5189,-7.2219
2016,1,7,19,15,0,7.8021,-0.80053,-7.339
2016,1,7,19,45,0,7.8229,-1.0646,-7.6267
2016,1,7,20,15,0,7.8437,-0.78318,-7.7004
2016,1,7,20,45,0,7.8646,-0.9456,-7.8444
2016,1,7,21,15,0,7.8854,-1.1832,-7.8959
2016,1,7,21,45,0,7.9062,-1.4344,-8.0669
2016,1,7,22,15,0,7.9271,-1.2706,-8.3792
2016,1,7,22,45,0,7.9479,-0.60584,-8.4625
2016,1,7,23,15,0,7.9687,-0.062411,-8.1813
2016,1,7,23,45,0,7.9896,-0.4693,-8.4739
2016,1,8,0,15,0,8.0104,-0.21022,-8.4351
2016,1,8,0,45,0,8.0312,-0.26243,-8.5118
2016,1,8,1,15,0,8.0521,-0.28374,-8.5961
2016,1,8,1,45,0,8.0729,-0.79353,-8.7007
2016,1,8,2,15,0,8.0937,-1.3443,-8.777
2016,1,8,2,45,0,8.1146,-0.23062,-8.8295
2016,1,8,3,15,0,8.1354,0.032423,-8.8091
2016,1,8,3,45,0,8.1562,-0.34554,-8.9118
2016,1,8,4,15,0,8.1771,-0.27141,-9.1181
2016,1,8,4,45,0,8.1979,-0.43581,-9.5256
2016,1,8,5,15,0,8.2187,-0.49259,-9.9057
2016,1,8,5,45,0,8.2396,-0.45119,-10.371
2016,1,8,6,15,0,8.2604,-0.56733,-10.826
2016,1,8,6,45,0,8.2812,-0.36275,-11.177
2016,1,8,7,15,0,8.3021,0.2332,-11.331
2016,1,8,7,45,0,8.3229,5.0918,-11.617
2016,1,8,8,15,0,8.3437,19.963,-11.723
2016,1,8,8,45,0,8.3646,34.176,-11.781
2016,1,8,9,15,0,8.3854,54.625,-11.762
2016,1,8,9,45,0,8.4062,67.578,-11.568
2016,1,8,10,15,0,8.4271,83.492,-11.677
2016,1,8,10,45,0,8.4479,86.061,-11.776
2016,1,8,11,15,0,8.4687,86.608,-11.843
2016,1,8,11,45,0,8.4896,126.78,-11.736
2016,1,8,12,15,0,8.5104,137.64,-11.331
2016,1,8,12,45,0,8.5312,103.45,-11.364
2016,1,8,13,15,0,8.5521,130.31,-11.069
2016,1,8,13,45,0,8.5729,91.074,-10.991
2016,1,8,14,15,0,8.5937,85.579,-10.991
2016,1,8,14,45,0,8.6146,44.563,-10.998
2016,1,8,15,15,0,8.6354,49.42,-11.121
2016,1,8,15,45,0,8.6562,59.611,-11.063
2016,1,8,16,15,0,8.6771,21.067,-11.102
2016,1,8,16,45,0,8.6979,3.1626,-11.227
2016,1,8,17,15,0,8.7187,-0.73873,-11.379
2016,1,8,17,45,0,8.7396,-0.63355,-11.345
2016,1,8,18,15,0,8.7604,-1.8207,-11.594
2016,1,8,18,45,0,8.7812,-5.0468,-12.2
2016,1,8,19,15,0,8.8021,-6.1231,-13.516
2016,1,8,19,45,0,8.8229,-5.6839,-13.443
2016,1,8,20,15,0,8.8437,-5.5382,-13.61
2016,1,8,20,45,0,8.8646,-5.9642,-14.429
2016,1,8,21,15,0,8.8854,-3.2248,-12.957
2016,1,8,21,45,0,8.9062,-3.4019,-12.251
2016,1,8,22,15,0,8.9271,-5.3547,-12.157
2016,1,8,22,45,0,8.9479,-3.2558,-11.723
2016,1,8,23,15,0,8.9687,-5.7754,-11.826
2016,1,8,23,45,0,8.9896,-4.0929,-12.035
2016,1,9,0,15,0,9.0104,-3.0334,-12.294
2016,1,9,0,45,0,9.0312,-3.6826,-11.627
2016,1,9,1,15,0,9.0521,-3.6205,-11.858
2016,1,9,1,45,0,9.0729,-1.7133,-11.535
2016,1,9,2,15,0,9.0937,-3.5213,-11.391
2016,1,9,2,45,0,9.1146,-2.7412,-11.764
2016,1,9,3,15,0,9.1354,-2.3209,-11.461
2016,1,9,3,45,0,9.1562,-2.0334,-11.392
2016,1,9,4,15,0,9.1771,-1.7243,-11.341
2016,1,9,4,45,0,9.1979,-2.0467,-11.327
2016,1,9,5,15,0,9.2187,-2.9908,-11.777
2016,1,9,5,45,0,9.2396,-1.6938,-11.822
2016,1,9,6,15,0,9.2604,-2.0154,-11.85
2016,1,9,6,45,0,9.2812,-1.7633,-11.654
2016,1,9,7,15,0,9.3021,0.80755,-11.9
2016,1,9,7,45,0,9.3229,28.002,-12.038
2016,1,9,8,15,0,9.3437,55.72,-11.91
2016,1,9,8,45,0,9.3646,114.1,-11.617
2016,1,9,9,15,0,9.3854,189.59,-11.281
2016,1,9,9,45,0,9.4062,303.93,-11.192
2016,1,9,10,15,0,9.4271,270.61,-10.747
2016,1,9,10,45,0,9.4479,321.62,-10.464
2016,1,9,11,15,0,9.4687,212.58,-10.59
2016,1,9,11,45,0,9.4896,240.7,-10.516
2016,1,9,12,15,0,9.5104,351.29,-10.273
2016,1,9,12,45,0,9.5312,307.56,-10.227
2016,1,9,13,15,0,9.5521,206.36,-10.703
2016,1,9,13,45,0,9.5729,319.26,-10.491
2016,1,9,14,15,0,9.5937,239.63,-10.791
2016,1,9,14,45,0,9.6146,263.82,-10.698
2016,1,9,15,15,0,9.6354,233.17,-10.909
2016,1,9,15,45,0,9.6562,166.61,-11.312
2016,1,9,16,15,0,9.6771,49.203,-11.712
2016,1,9,16,45,0,9.6979,6.0435,-12.259
2016,1,9,17,15,0,9.7187,-1.4099,-12.254
2016,1,9,17,45,0,9.7396,-2.0747,-12.368
2016,1,9,18,15,0,9.7604,-2.0459,-12.475
2016,1,9,18,45,0,9.7812,-2.051,-12.564
2016,1,9,19,15,0,9.8021,-1.9654,-12.702
2016,1,9,19,45,0,9.8229,-2.1169,-12.859
2016,1,9,20,15,0,9.8437,-2.1415,-13.1
2016,1,9,20,45,0,9.8646,-2.1303,-13.19
2016,1,9,21,15,0,9.8854,-2.2476,-13.129
2016,1,9,21,45,0,9.9062,-2.3743,-13.265
2016,1,9,22,15,0,9.9271,-2.49,-13.132
2016,1,9,22,45,0,9.9479,-2.4866,-13.135
2016,1,9,23,15,0,9.9687,-2.356,-13.213
2016,1,9,23,45,0,9.9896,-2.4924,-13.113
2016,1,10,0,15,0,10.01,-2.5087,-13.086
2016,1,10,0,45,0,10.031,-2.4288,-13.234
2016,1,10,1,15,0,10.052,-2.7041,-13.336
2016,1,10,1,45,0,10.073,-2.4252,-13.574
2016,1,10,2,15,0,10.094,-2.3198,-13.688
2016,1,10,2,45,0,10.115,-2.3882,-13.692
2016,1,10,3,15,0,10.135,-2.5913,-13.731
2016,1,10,3,45,0,10.156,-2.6559,-13.724
2016,1,10,4,15,0,10.177,-2.3828,-13.728
2016,1,10,4,45,0,10.198,-2.412,-13.539
2016,1,10,5,15,0,10.219,-2.6738,-13.54
2016,1,10,5,45,0,10.24,-2.4772,-13.398
2016,1,10,6,15,0,10.26,-2.6205,-13.358
2016,1,10,6,45,0,10.281,-2.6335,-13.342
2016,1,10,7,15,0,10.302,4.188,-13.501
2016,1,10,7,45,0,10.323,60.923,-13.153
2016,1,10,8,15,0,10.344,150.28,-13.02
2016,1,10,8,45,0,10.365,245.76,-12.414
2016,1,10,9,15,0,10.385,332.94,-11.757
2016,1,10,9,45,0,10.406,410.34,-10.931
2016,1,10,10,15,0,10.427,475.88,-11.176
2016,1,10,10,45,0,10.448,527.43,-10.472
2016,1,10,11,15,0,10.469,562.69,-9.9352
2016,1,10,11,45,0,10.49,581.92,-9.8942
2016,1,10,12,15,0,10.51,585.14,-8.8456
2016,1,10,12,45,0,10.531,571.36,-8.6673
2016,1,10,13,15,0,10.552,542.47,-9.3095
2016,1,10,13,45,0,10.573,496.63,-8.6871
2016,1,10,14,15,0,10.594,437.58,-8.3541
2016,1,10,14,45,0,10.615,363.77,-8.4096
2016,1,10,15,15,0,10.635,278.12,-8.6865
2016,1,10,15,45,0,10.656,185.22,-9.0469
2016,1,10,16,15,0,10.677,71.849,-10.939
2016,1,10,16,45,0,10.698,6.7585,-10.716
2016,1,10,17,15,0,10.719,-2.1279,-10.617
2016,1,10,17,45,0,10.74,-2.873,-11.045
2016,1,10,18,15,0,10.76,-2.8203,-11.166
2016,1,10,18,45,0,10.781,-2.6518,-11.157
2016,1,10,19,15,0,10.802,-2.6148,-10.709
2016,1,10,19,45,0,10.823,-2.769,-10.623
2016,1,10,20,15,0,10.844,-2.7052,-9.8752
2016,1,10,20,45,0,10.865,-2.8183,-9.386
2016,1,10,21,15,0,10.885,-2.9137,-9.3435
2016,1,10,21,45,0,10.906,-2.7187,-9.361
2016,1,10,22,15,0,10.927,-2.5611,-9.0712
2016,1,10,22,45,0,10.948,-2.4357,-8.4534
2016,1,10,23,15,0,10.969,-2.6508,-8.0098
2016,1,10,23,45,0,10.99,-2.6665,-7.8944
2016,1,11,0,15,0,11.01,-2.5135,-7.1492
2016,1,11,0,45,0,11.031,-2.6172,-7.101
2016,1,11,1,15,0,11.052,-2.2514,-7.0536
2016,1,11,1,45,0,11.073,-2.1594,-7.4562
2016,1,11,2,15,0,11.094,-1.863,-7.2547
2016,1,11,2,45,0,11.115,-1.9459,-7.0326
2016,1,11,3,15,0,11.135,-1.7754,-6.4006
2016,1,11,3,45,0,11.156,-1.4708,-6.0572
2016,1,11,4,15,0,11.177,-1.622,-5.9751
2016,1,11,4,45,0,11.198,-3.3473,-8.7005
2016,1,11,5,15,0,11.219,-1.7022,-9.3974
2016,1,11,5,45,0,11.24,-0.91151,-8.0842
2016,1,11,6,15,0,11.26,-1.7393,-7.8224
2016,1,11,6,45,0,11.281,-1.4802,-8.6224
2016,1,11,7,15,0,11.302,2.515,-7.228
2016,1,11,7,45,0,11.323,16.643,-5.7834
2016,1,11,8,15,0,11.344,56.134,-6.7453
2016,1,11,8,45,0,11.365,105.19,-6.0286
2016,1,11,9,15,0,11.385,165.98,-5.6907
2016,1,11,9,45,0,11.406,230.72,-5.4702
2016,1,11,10,15,0,11.427,266.16,-1.1232
2016,1,11,10,45,0,11.448,281.62,-0.22517
2016,1,11,11,15,0,11.469,312.22,NaN
2016,1,11,11,45,0,11.49,416.7,NaN
2016,1,11,12,15,0,11.51,527.43,NaN
2016,1,11,12,45,0,11.531,513.83,NaN
2016,1,11,13,15,0,11.552,515.82,-4.8143
2016,1,11,13,45,0,11.573,489.59,-4.3981
2016,1,11,14,15,0,11.594,434.88,-4.2092
2016,1,11,14,45,0,11.615,358.12,-0.13013
2016,1,11,15,15,0,11.635,278.63,-0.24051
2016,1,11,15,45,0,11.656,181.18,-4.6167
2016,1,11,16,15,0,11.677,103.46,-6.2091
2016,1,11,16,45,0,11.698,19.802,-8.2434
2016,1,11,17,15,0,11.719,2.0899,-8.8705
2016,1,11,17,45,0,11.74,-1.7248,-8.6962
2016,1,11,18,15,0,11.76,-1.8911,-8.1777
2016,1,11,18,45,0,11.781,-1.9696,-7.1979
2016,1,11,19,15,0,11.802,-2.0454,-6.2747
2016,1,11,19,45,0,11.823,-1.9304,-6.358
2016,1,11,20,15,0,11.844,-1.9277,-5.3097
2016,1,11,20,45,0,11.865,-2.4298,-5.9152
2016,1,11,21,15,0,11.885,-2.394,-5.9869
2016,1,11,21,45,0,11.906,-2.6189,-6.1999
2016,1,11,22,15,0,11.927,-2.804,-6.483
2016,1,11,22,45,0,11.948,-2.3553,-5.9339
2016,1,11,23,15,0,11.969,-2.9405,-5.3416
2016,1,11,23,45,0,11.99,-2.695,-5.126
2016,1,12,0,15,0,12.01,-2.9442,-5.5951
2016,1,12,0,45,0,12.031,-2.6673,-7.8543
2016,1,12,1,15,0,12.052,-2.2269,-7.3221
2016,1,12,1,45,0,12.073,-2.2314,-6.6224
2016,1,12,2,15,0,12.094,-2.3765,-6.1426
2016,1,12,2,45,0,12.115,-2.3236,-5.8945
2016,1,12,3,15,0,12.135,-2.4911,-5.9612
2016,1,12,3,45,0,12.156,-2.3389,-6.2509
2016,1,12,4,15,0,12.177,-2.7935,-6.498
2016,1,12,4,45,0,12.198,-3.1963,-7.4477
2016,1,12,5,15,0,12.219,-3.9035,-8.6467
2016,1,12,5,45,0,12.24,-3.5712,-8.9019
2016,1,12,6,15,0,12.26,-3.4095,-9.0205
2016,1,12,6,45,0,12.281,-2.4512,-8.9134
2016,1,12,7,15,0,12.302,5.4129,-8.8165
2016,1,12,7,45,0,12.323,40.444,-8.5083
2016,1,12,8,15,0,12.344,106.14,-7.9765
2016,1,12,8,45,0,12.365,180.82,-7.3957
2016,1,12,9,15,0,12.385,112.98,-6.7852
2016,1,12,9,45,0,12.406,129.37,-6.4189
2016,1,12,10,15,0,12.427,226.83,-5.8482
2016,1,12,10,45,0,12.448,486.76,-4.713
2016,1,12,11,15,0,12.469,542.38,-4.6354
2016,1,12,11,45,0,12.49,585.59,-4.6792
2016,1,12,12,15,0,12.51,564.19,-4.4945
2016,1,12,12,45,0,12.531,614.49,-4.2741
2016,1,12,13,15,0,12.552,615.9,-4.1788
2016,1,12,13,45,0,12.573,550.5,-4.1172
2016,1,12,14,15,0,12.594,450.94,-4.4656
2016,1,12,14,45,0,12.615,375.79,-4.5131
2016,1,12,15,15,0,12.635,256.6,-4.4771
2016,1,12,15,45,0,12.656,91.307,-4.8575
2016,1,12,16,15,0,12.677,38.275,-5.3458
2016,1,12,16,45,0,12.698,11.801,-5.6943
2016,1,12,17,15,0,12.719,-0.71497,-5.4716
2016,1,12,17,45,0,12.74,-1.6191,-5.3448
2016,1,12,18,15,0,12.76,-1.5096,-5.3005
2016,1,12,18,45,0,12.781,-1.5417,-5.2882
2016,1,12,19,15,0,12.802,-1.6248,-5.6725
2016,1,12,19,45,0,12.823,-1.6596,-6.1205
2016,1,12,20,15,0,12.844,-1.5807,-6.2987
2016,1,12,20,45,0,12.865,-1.4333,-6.7182
2016,1,12,21,15,0,12.885,-1.4272,-6.6463
2016,1,12,21,45,0,12.906,-1.4852,-6.73
2016,1,12,22,15,0,12.927,-1.6624,-6.8084
2016,1,12,22,45,0,12.948,-1.8427,-7.0343
2016,1,12,23,15,0,12.969,-1.8958,-7.0808
2016,1,12,23,45,0,12.99,-1.932,-7.2114
2016,1,13,0,15,0,13.01,-1.7858,-7.2325
2016,1,13,0,45,0,13.031,-1.6113,-6.9275
2016,1,13,1,15,0,13.052,-1.7285,-6.87
2016,1,13,1,45,0,13.073,-1.7234,-6.754
2016,1,13,2,15,0,13.094,-1.5623,-6.5327
2016,1,13,2,45,0,13.115,-1.3213,-6.1651
2016,1,13,3,15,0,13.135,-1.242,-5.918
2016,1,13,3,45,0,13.156,-1.4088,-5.731
2016,1,13,4,15,0,13.177,-1.5176,-5.1627
2016,1,13,4,45,0,13.198,-1.4733,-4.5995
2016,1,13,5,15,0,13.219,-1.4035,-4.0015
2016,1,13,5,45,0,13.24,-1.6582,-3.4987
2016,1,13,6,15,0,13.26,-1.8576,-3.3437
2016,1,13,6,45,0,13.281,-1.6891,-3.2065
2016,1,13,7,15,0,13.302,4.5965,-2.9792
2016,1,13,7,45,0,13.323,47.207,-2.6263
2016,1,13,8,15,0,13.344,160.02,-2.5193
2016,1,13,8,45,0,13.365,265.79,-2.0733
2016,1,13,9,15,0,13.385,143.19,-1.6904
2016,1,13,9,45,0,13.406,205.37,-1.0654
2016,1,13,10,15,0,13.427,172.39,-1.2522
2016,1,13,10,45,0,13.448,251.41,-1.0512
2016,1,13,11,15,0,13.469,222.32,-0.78534
2016,1,13,11,45,0,13.49,260.63,-0.65104
2016,1,13,12,15,0,13.51,231.15,-0.68541
2016,1,13,12,45,0,13.531,153.25,-1.3317
2016,1,13,13,15,0,13.552,138.22,-1.1622
2016,1,13,13,45,0,13.573,322.87,-0.42563
2016,1,13,14,15,0,13.594,500.08,0.7858
2016,1,13,14,45,0,13.615,442.58,1.1338
2016,1,13,15,15,0,13.635,374.47,1.1752
2016,1,13,15,45,0,13.656,269.97,1.2045
2016,1,13,16,15,0,13.677,121.56,0.91154
2016,1,13,16,45,0,13.698,37.982,0.30982
2016,1,13,17,15,0,13.719,2.6231,0.0081606